$DATE,$TIME,DM0600B,DM0602B,DM0604B,DM0614B,DM0616B,DM0618B,DM0624B,DM0628B,DM0630B,DM0634B,DM0606B,DM0608B,DM0610B
12/06/94,00:00:00,26,24,28,22,0,61,58,80,48,0,9,7,8
12/06/94,00:05:00,10,9,17,4,0,64,61,80,48,0,10,7,7
12/06/94,00:10:00,9,8,15,9,0,64,62,81,48,0,9,7,7
12/06/94,00:15:00,9,9,16,18,0,63,60,81,61,0,10,8,8
12/06/94,00:20:00,3,0,0,0,0,63,60,81,40,0,12,22,8
12/06/94,00:25:00,18,12,23,44,0,69,66,80,42,0,20,21,8
12/06/94,00:30:00,44,48,35,33,0,73,69,80,50,0,15,15,8
12/06/94,00:35:00,4,1,6,28,0,75,71,80,50,0,13,12,8
12/06/94,00:40:00,26,28,18,21,0,74,71,78,48,0,11,10,8
12/06/94,00:45:00,35,18,17,23,0,73,70,78,48,0,11,9,7
12/06/94,00:50:00,46,54,35,22,0,71,67,77,48,0,10,8,7
12/06/94,00:55:00,42,30,23,15,0,67,64,78,48,0,10,7,7
12/06/94,01:00:00,34,29,30,21,0,64,61,78,52,0,10,7,7
12/06/94,01:05:00,26,3,12,19,0,61,59,79,54,0,10,7,7
12/06/94,01:10:00,27,17,22,20,0,60,58,79,54,0,9,7,7
12/06/94,01:15:00,19,7,11,5,0,60,58,80,54,0,10,7,7
12/06/94,01:20:00,3,4,3,3,0,62,59,80,48,0,10,8,7
12/06/94,01:25:00,0,0,0,0,0,60,57,80,53,0,12,20,9
12/06/94,01:30:00,0,0,0,0,0,56,54,81,62,0,24,24,21
12/06/94,01:35:00,0,0,0,0,0,54,52,81,53,0,17,17,14
12/06/94,01:40:00,0,0,0,0,0,52,49,81,53,0,29,26,27
12/06/94,01:45:00,0,0,0,0,0,49,47,81,56,0,21,28,18
12/06/94,01:50:00,0,0,0,0,0,44,42,81,55,0,31,23,27
12/06/94,01:55:00,0,0,0,0,0,44,42,82,55,0,24,32,26
12/06/94,02:00:00,0,0,0,0,0,47,45,82,55,0,33,29,22
12/06/94,02:05:00,0,0,0,0,0,51,49,82,53,0,30,27,31
12/06/94,02:10:00,0,0,0,0,0,50,48,82,53,0,28,35,27
12/06/94,02:15:00,0,0,0,0,0,50,48,82,53,0,32,26,22
12/06/94,02:20:00,0,0,0,0,0,54,51,82,53,0,25,31,30
12/06/94,02:25:00,0,0,0,0,0,54,52,82,53,0,35,33,30
12/06/94,02:30:00,0,0,0,0,0,54,52,82,79,0,28,24,24
12/06/94,02:35:00,0,0,0,0,0,54,52,82,55,0,32,33,26
12/06/94,02:40:00,0,0,0,0,0,56,53,82,55,0,32,31,33
12/06/94,02:45:00,0,0,0,0,0,57,55,82,53,0,27,27,29
12/06/94,02:50:00,0,0,0,0,0,57,54,82,53,0,35,36,23
12/06/94,02:55:00,0,0,0,0,0,55,53,82,53,0,29,26,30
12/06/94,03:00:00,0,0,0,0,0,58,55,85,61,0,32,31,33
12/06/94,03:05:00,4,0,0,0,0,60,57,85,61,0,32,36,28
12/06/94,03:10:00,0,0,0,0,0,57,54,89,57,0,27,25,24
12/06/94,03:15:00,0,0,0,0,0,57,55,88,59,0,37,34,30
12/06/94,03:20:00,0,0,0,0,0,57,54,89,59,0,30,34,35
12/06/94,03:25:00,0,0,0,0,0,55,52,89,59,0,38,28,31
12/06/94,03:30:00,0,0,0,0,0,52,50,89,67,0,33,36,27
12/06/94,03:35:00,0,0,0,0,0,57,54,89,57,0,30,31,28
12/06/94,03:40:00,0,0,0,0,0,58,55,89,57,0,36,31,36
12/06/94,03:45:00,0,0,0,0,0,57,55,89,57,0,29,38,33
12/06/94,03:50:00,0,0,0,0,0,55,52,82,57,0,38,28,27
12/06/94,03:55:00,0,0,0,0,0,53,51,82,57,0,33,33,27
12/06/94,04:00:00,0,0,0,0,0,50,48,82,58,0,31,36,32
12/06/94,04:05:00,11,1,0,0,0,56,54,82,58,0,35,29,35
12/06/94,04:10:00,0,0,0,0,0,58,56,82,58,0,30,36,32
12/06/94,04:15:00,4,0,0,0,0,58,55,82,56,0,32,29,26
12/06/94,04:20:00,0,0,0,0,0,59,56,82,56,0,35,30,27
12/06/94,04:25:00,0,0,0,0,0,59,56,82,57,0,27,36,33
12/06/94,04:30:00,0,0,0,0,0,56,53,82,56,0,36,26,34
12/06/94,04:35:00,0,0,0,0,0,56,54,82,56,0,32,34,30
12/06/94,04:40:00,0,0,0,0,0,49,46,82,51,0,28,31,24
12/06/94,04:45:00,0,0,0,0,0,50,47,82,43,0,36,30,29
12/06/94,04:50:00,0,0,0,0,0,47,45,82,43,0,27,34,33
12/06/94,04:55:00,14,18,10,0,0,52,50,82,41,0,28,24,23
12/06/94,05:00:00,18,15,27,17,0,52,49,81,40,0,27,29,22
12/06/94,05:05:00,35,20,24,27,0,45,43,80,40,0,18,21,15
12/06/94,05:10:00,17,19,23,19,0,43,41,80,40,0,14,16,12
12/06/94,05:15:00,31,14,18,17,0,44,42,80,40,0,12,13,11
12/06/94,05:20:00,0,0,10,7,0,44,42,80,44,0,12,15,10
12/06/94,05:25:00,0,5,5,2,0,44,42,80,45,0,23,26,21
12/06/94,05:30:00,0,0,0,0,0,49,47,81,46,0,17,19,15
12/06/94,05:35:00,0,0,0,0,0,56,54,81,46,0,28,26,25
12/06/94,05:40:00,0,0,1,0,0,59,57,81,44,0,19,27,17
12/06/94,05:45:00,0,0,7,0,0,59,56,81,44,0,30,20,24
12/06/94,05:50:00,0,0,0,0,0,55,53,81,44,0,21,30,23
12/06/94,05:55:00,0,0,0,0,0,55,53,82,44,0,28,25,21
12/06/94,06:00:00,0,0,0,0,0,51,49,81,44,0,26,25,30
12/06/94,06:05:00,0,0,0,0,0,50,47,81,46,0,27,33,20
12/06/94,06:10:00,0,0,0,0,0,44,42,82,46,0,29,23,26
12/06/94,06:15:00,0,0,0,0,0,41,39,81,46,0,26,31,31
12/06/94,06:20:00,0,0,0,0,0,43,40,82,44,0,33,32,25
12/06/94,06:25:00,0,0,0,0,0,43,41,82,44,0,25,25,24
12/06/94,06:30:00,0,0,0,0,0,46,44,81,44,0,34,34,30
12/06/94,06:35:00,0,0,0,0,0,46,44,82,44,0,29,26,30
12/06/94,06:40:00,0,0,0,0,0,45,43,82,48,0,30,30,24
12/06/94,06:45:00,0,0,0,0,0,47,45,81,48,0,33,34,27
12/06/94,06:50:00,0,0,0,0,0,46,44,82,50,0,27,26,33
12/06/94,06:55:00,0,0,0,0,0,47,45,82,50,0,35,34,27
12/06/94,07:00:00,0,0,0,0,0,48,46,82,50,0,28,29,24
12/06/94,07:05:00,0,0,0,0,0,48,46,82,48,0,34,30,31
12/06/94,07:10:00,0,0,0,0,0,47,45,82,48,0,31,37,33
12/06/94,07:15:00,0,0,0,0,0,47,45,82,48,0,27,26,27
12/06/94,07:20:00,0,0,0,0,0,46,44,82,48,0,35,33,25
12/06/94,07:25:00,0,0,0,0,0,46,44,82,48,0,27,33,32
12/06/94,07:30:00,0,0,0,0,0,45,43,82,48,0,37,28,33
12/06/94,07:35:00,0,3,6,0,0,44,42,82,50,0,30,37,28
12/06/94,07:40:00,0,10,8,0,0,44,42,82,50,0,30,28,25
12/06/94,07:45:00,0,0,0,0,0,40,38,82,52,0,34,32,29
12/06/94,07:50:00,0,0,0,0,0,42,40,82,48,0,28,36,34
12/06/94,07:55:00,0,0,0,0,0,43,41,82,48,0,35,28,34
12/06/94,08:00:00,0,0,0,0,0,43,41,82,48,0,28,36,29
12/06/94,08:05:00,0,0,0,0,0,37,36,82,48,0,37,32,27
12/06/94,08:10:00,0,0,0,0,0,36,35,82,48,0,31,31,35
12/06/94,08:15:00,0,0,0,0,0,32,31,82,48,0,38,38,35
12/06/94,08:20:00,0,0,0,0,0,32,31,82,50,0,32,30,30
12/06/94,08:25:00,0,0,0,0,0,33,31,82,50,0,39,34,28
12/06/94,08:30:00,0,0,0,0,0,33,32,83,59,0,33,41,33
12/06/94,08:35:00,0,0,7,0,0,32,30,83,48,0,40,29,38
12/06/94,08:40:00,0,0,0,0,0,29,28,83,48,0,34,36,35
12/06/94,08:45:00,0,0,0,0,0,30,29,82,48,0,35,33,29
12/06/94,08:50:00,0,0,0,0,0,29,28,83,48,0,36,33,31
12/06/94,08:55:00,0,0,0,0,0,27,25,83,48,0,39,39,40
12/06/94,09:00:00,0,0,0,0,0,27,26,83,48,0,36,38,36
12/06/94,09:05:00,0,0,0,0,0,29,27,83,50,0,40,33,32
12/06/94,09:10:00,0,0,0,0,0,31,30,83,50,0,36,40,30
12/06/94,09:15:00,0,0,0,0,0,30,29,83,65,0,37,30,36
12/06/94,09:20:00,0,0,0,0,0,30,29,83,48,0,36,35,38
12/06/94,09:25:00,0,0,0,0,0,30,29,83,48,0,39,40,33
12/06/94,09:30:00,0,0,0,0,0,28,27,83,59,0,36,31,29
12/06/94,09:35:00,0,0,0,0,0,27,26,83,48,0,41,36,36
12/06/94,09:40:00,0,0,0,0,0,27,26,83,48,0,36,41,39
12/06/94,09:45:00,0,0,0,0,0,27,26,83,48,0,41,30,35
12/06/94,09:50:00,0,0,0,0,0,25,24,83,48,0,36,37,31
12/06/94,09:55:00,0,0,0,0,0,26,25,83,48,0,41,40,31
12/06/94,10:00:00,0,0,0,0,0,25,24,83,55,0,36,32,41
12/06/94,10:05:00,0,0,0,0,0,24,23,83,50,0,41,39,36
12/06/94,10:10:00,0,0,0,0,0,23,22,83,50,0,35,42,31
12/06/94,10:15:00,0,0,0,0,0,23,22,83,50,0,40,32,35
12/06/94,10:20:00,0,0,0,0,0,22,21,83,48,0,36,37,40
12/06/94,10:25:00,0,0,0,0,0,22,21,83,48,0,38,41,36
12/06/94,10:30:00,0,0,0,0,0,22,21,83,48,0,40,40,31
12/06/94,10:35:00,0,0,0,0,0,19,18,83,48,0,37,33,37
12/06/94,10:40:00,0,0,0,0,0,18,17,83,48,0,42,39,40
12/06/94,10:45:00,0,0,0,0,0,18,17,83,48,0,34,42,35
12/06/94,10:50:00,0,0,0,0,0,18,17,83,48,0,40,37,31
12/06/94,10:55:00,0,0,0,0,0,18,18,83,50,0,43,34,41
12/06/94,11:00:00,0,0,0,0,0,17,16,83,50,0,37,40,38
12/06/94,11:05:00,0,0,0,0,0,16,15,83,50,0,41,42,31
12/06/94,11:10:00,0,0,0,0,0,15,15,83,50,0,42,36,39
12/06/94,11:15:00,0,0,0,0,0,14,14,83,48,0,38,34,32
12/06/94,11:20:00,0,0,0,0,0,14,13,84,48,0,42,40,37
12/06/94,11:25:00,0,0,0,0,0,13,13,84,48,0,34,42,41
12/06/94,11:30:00,0,0,0,0,0,13,13,84,48,0,40,32,39
12/06/94,11:35:00,0,0,0,0,0,14,13,84,48,0,44,39,39
12/06/94,11:40:00,0,0,0,0,0,13,13,84,48,0,36,43,37
12/06/94,11:45:00,0,0,0,0,0,13,12,84,48,0,41,43,35
12/06/94,11:50:00,0,0,0,0,0,13,12,84,50,0,43,32,34
12/06/94,11:55:00,0,0,0,0,0,12,12,84,50,0,44,37,31
12/06/94,12:00:00,0,0,0,0,0,12,11,84,50,0,38,42,31
12/06/94,12:05:00,0,0,0,0,0,11,11,84,50,0,42,43,32
12/06/94,12:10:00,0,0,0,0,0,12,11,84,48,0,37,35,41
12/06/94,12:15:00,0,0,0,0,0,11,11,84,48,0,39,36,33
12/06/94,12:20:00,0,0,0,0,0,11,11,83,48,0,43,41,39
12/06/94,12:25:00,0,0,0,0,0,11,10,84,48,0,36,43,40
12/06/94,12:30:00,0,0,0,0,0,10,10,83,48,0,42,34,35
12/06/94,12:35:00,0,0,0,0,0,11,11,84,48,0,33,36,35
12/06/94,12:40:00,0,0,0,0,0,12,11,83,50,0,39,41,41
12/06/94,12:45:00,0,0,0,0,0,12,12,83,50,0,43,42,37
12/06/94,12:50:00,0,0,0,0,0,11,11,83,50,0,35,32,32
12/06/94,12:55:00,0,0,0,0,0,11,11,83,50,0,41,38,39
12/06/94,13:00:00,0,0,0,0,0,12,12,83,48,0,35,42,40
12/06/94,13:05:00,0,0,0,0,0,13,12,83,48,0,40,32,35
12/06/94,13:10:00,17,2,15,0,0,12,11,83,48,0,34,37,30
12/06/94,13:15:00,23,36,23,35,0,12,12,82,48,0,32,34,33
12/06/94,13:20:00,64,68,81,60,0,13,12,81,47,0,24,21,22
12/06/94,13:25:00,34,72,70,44,0,13,13,80,49,0,19,15,16
12/06/94,13:30:00,56,14,66,53,0,14,13,80,49,0,15,13,13
12/06/94,13:35:00,67,89,49,50,0,14,14,79,49,0,13,11,11
12/06/94,13:40:00,61,111,51,40,0,14,14,79,48,0,12,10,10
12/06/94,13:45:00,44,61,49,43,0,15,15,79,47,0,11,9,10
12/06/94,13:50:00,59,89,47,40,0,15,15,79,47,0,10,8,9
12/06/94,13:55:00,57,85,33,36,0,16,15,78,47,0,10,8,9
12/06/94,14:00:00,62,79,45,39,0,15,15,78,47,0,10,7,9
12/06/94,14:05:00,60,77,47,36,0,14,13,78,47,0,10,7,9
12/06/94,14:10:00,56,70,46,31,0,11,11,78,47,0,10,7,8
12/06/94,14:15:00,56,74,49,34,0,11,11,78,47,0,10,7,9
12/06/94,14:20:00,53,49,42,30,0,13,13,79,49,0,9,7,8
12/06/94,14:25:00,45,60,46,23,0,13,12,79,49,0,10,7,8
12/06/94,14:30:00,57,72,48,36,0,13,13,78,49,0,10,7,9
12/06/94,14:35:00,58,74,40,37,0,13,13,78,49,0,10,7,9
12/06/94,14:40:00,59,73,41,33,0,14,13,78,47,0,9,7,9
12/06/94,14:45:00,55,70,42,26,0,14,13,78,47,0,9,7,8
12/06/94,14:50:00,57,75,44,33,0,15,14,78,47,0,9,7,8
12/06/94,14:55:00,54,69,43,30,0,16,15,78,47,0,9,7,8
12/06/94,15:00:00,47,69,40,29,0,17,17,79,47,0,9,7,8
12/06/94,15:05:00,51,76,40,32,0,17,16,79,47,0,9,7,8
12/06/94,15:10:00,52,73,45,30,0,18,18,78,47,0,9,7,8
12/06/94,15:15:00,55,70,42,30,0,19,19,79,50,0,9,7,8
12/06/94,15:20:00,53,68,35,31,0,19,19,79,48,0,9,7,8
12/06/94,15:25:00,54,73,43,30,0,19,19,78,48,0,9,7,8
12/06/94,15:30:00,52,66,40,26,0,19,19,78,47,0,10,7,8
12/06/94,15:35:00,43,43,32,21,0,20,19,79,47,0,10,6,9
12/06/94,15:40:00,45,24,46,28,0,20,20,79,47,0,9,7,8
12/06/94,15:45:00,39,37,31,26,0,21,21,79,47,0,9,6,8
12/06/94,15:50:00,11,4,18,11,0,22,21,80,47,0,10,7,8
12/06/94,15:55:00,16,2,14,19,0,22,21,81,47,0,12,15,8
12/06/94,16:00:00,35,9,28,13,0,23,22,80,49,0,19,23,8
12/06/94,16:05:00,19,14,11,26,0,23,22,81,49,0,15,16,8
12/06/94,16:10:00,26,25,29,32,0,24,23,81,49,0,13,13,8
12/06/94,16:15:00,0,0,0,0,0,24,23,82,48,0,17,15,23
12/06/94,16:20:00,0,0,4,0,0,24,23,82,48,0,26,29,15
12/06/94,16:25:00,66,29,65,46,0,25,24,80,47,0,17,24,19
12/06/94,16:30:00,52,33,52,38,0,23,22,80,47,0,14,17,13
12/06/94,16:35:00,20,4,34,7,0,23,22,80,47,0,12,13,11
12/06/94,16:40:00,57,19,51,36,0,24,23,79,47,0,11,11,9
12/06/94,16:45:00,60,33,49,38,0,25,24,79,47,0,11,10,9
12/06/94,16:50:00,52,28,38,38,0,25,24,78,47,0,10,9,8
12/06/94,16:55:00,62,6,53,42,0,25,24,79,49,0,9,8,8
12/06/94,17:00:00,60,16,51,39,0,26,25,78,49,0,10,8,7
12/06/94,17:05:00,55,32,49,35,0,27,25,78,48,0,9,7,7
12/06/94,17:10:00,53,32,37,34,0,27,25,78,47,0,9,7,7
12/06/94,17:15:00,60,22,45,39,0,28,27,78,47,0,9,7,7
12/06/94,17:20:00,49,23,30,39,0,30,28,78,47,0,9,8,7
12/06/94,17:25:00,53,32,35,38,0,31,30,78,47,0,10,7,7
12/06/94,17:30:00,54,22,50,41,0,32,30,78,49,0,9,7,8
12/06/94,17:35:00,49,23,43,37,0,32,30,78,47,0,9,7,8
12/06/94,17:40:00,47,29,40,38,0,31,30,78,43,0,9,7,8
12/06/94,17:45:00,50,27,39,41,0,30,29,79,45,0,9,7,8
12/06/94,17:50:00,46,29,36,36,0,30,29,79,45,0,8,7,8
12/06/94,17:55:00,48,31,38,36,0,29,28,78,45,0,8,7,7
12/06/94,18:00:00,49,33,35,40,0,30,28,79,49,0,8,6,7
12/06/94,18:05:00,45,26,31,37,0,29,28,79,43,0,9,7,7
12/06/94,18:10:00,49,34,33,39,0,31,30,78,43,0,8,7,7
12/06/94,18:15:00,34,35,37,35,0,32,31,79,43,0,9,7,7
12/06/94,18:20:00,38,29,32,36,0,30,28,78,43,0,8,7,7
12/06/94,18:25:00,37,31,37,40,0,31,30,79,45,0,8,6,7
12/06/94,18:30:00,43,39,35,41,0,32,31,78,44,0,9,6,7
12/06/94,18:35:00,43,34,30,39,0,36,34,79,45,0,8,6,8
12/06/94,18:40:00,37,34,37,35,0,37,36,78,43,0,9,6,8
12/06/94,18:45:00,55,34,36,33,0,42,40,78,43,0,8,6,8
12/06/94,18:50:00,48,29,35,37,0,43,41,75,43,0,8,6,8
12/06/94,18:55:00,54,36,46,33,0,45,43,74,51,0,8,6,8
12/06/94,19:00:00,49,33,34,31,0,44,42,74,61,0,8,6,8
12/06/94,19:05:00,55,23,38,37,0,47,45,74,53,0,8,6,7
12/06/94,19:10:00,51,33,42,32,0,45,43,74,53,0,8,6,7
12/06/94,19:15:00,48,35,40,29,0,49,46,74,53,0,8,6,7
12/06/94,19:20:00,54,30,42,29,0,45,43,74,51,0,8,6,7
12/06/94,19:25:00,50,28,42,28,0,46,44,74,51,0,9,6,7
12/06/94,19:30:00,48,28,40,28,0,47,45,74,51,0,9,6,7
12/06/94,19:35:00,48,33,40,31,0,47,45,74,51,0,9,6,7
12/06/94,19:40:00,50,25,42,30,0,48,46,74,51,0,9,6,8
12/06/94,19:45:00,47,32,38,24,0,51,49,74,55,0,9,6,8
12/06/94,19:50:00,41,31,39,27,0,51,49,74,53,0,9,6,8
12/06/94,19:55:00,50,30,40,24,0,53,51,74,53,0,9,6,7
12/06/94,20:00:00,45,23,37,15,0,52,50,75,54,0,9,6,7
12/06/94,20:05:00,43,30,39,18,0,46,44,74,52,0,9,7,7
12/06/94,20:10:00,39,34,44,28,0,44,42,76,53,0,9,7,7
12/06/94,20:15:00,51,31,44,33,0,36,34,76,53,0,9,7,7
12/06/94,20:20:00,50,25,44,31,0,38,37,76,53,0,9,7,7
12/06/94,20:25:00,50,26,43,27,0,34,32,76,53,0,9,7,7
12/06/94,20:30:00,50,30,44,27,0,35,34,76,51,0,9,7,7
12/06/94,20:35:00,47,31,38,27,0,37,36,75,54,0,10,7,7
12/06/94,20:40:00,49,26,47,31,0,35,33,76,55,0,9,7,7
12/06/94,20:45:00,43,26,41,26,0,41,39,76,57,0,9,7,8
12/06/94,20:50:00,44,27,45,28,0,42,40,80,60,0,9,7,8
12/06/94,20:55:00,34,15,27,23,0,43,41,80,60,0,9,7,8
12/06/94,21:00:00,55,34,37,35,0,37,35,79,61,0,9,8,8
12/06/94,21:05:00,44,31,37,32,0,35,33,79,60,0,9,8,8
12/06/94,21:10:00,45,22,45,27,0,47,45,78,66,0,8,7,7
12/06/94,21:15:00,50,29,42,29,0,46,44,78,62,0,9,7,7
12/06/94,21:20:00,39,32,40,31,0,46,45,78,62,0,9,7,7
12/06/94,21:25:00,51,24,40,30,0,49,46,81,60,0,9,7,7
12/06/94,21:30:00,55,36,45,41,0,48,46,82,60,0,8,7,7
12/06/94,21:35:00,49,33,45,36,0,41,39,85,60,0,9,7,7
12/06/94,21:40:00,53,25,37,31,0,38,37,85,60,0,9,7,7
12/06/94,21:45:00,53,24,47,35,0,38,36,84,60,0,9,7,7
12/06/94,21:50:00,56,33,40,35,0,45,43,84,62,0,9,7,8
12/06/94,21:55:00,53,33,31,38,0,47,45,84,64,0,9,7,8
12/06/94,22:00:00,54,31,44,36,0,47,45,84,64,0,9,7,8
12/06/94,22:05:00,57,26,38,35,0,48,45,84,62,0,9,7,8
12/06/94,22:10:00,56,32,43,33,0,47,45,84,62,0,9,7,8
12/06/94,22:15:00,54,36,36,39,0,43,41,84,62,0,8,7,7
12/06/94,22:20:00,59,31,45,36,0,47,45,84,62,0,8,7,7
12/06/94,22:25:00,53,32,44,31,0,50,48,84,62,0,9,7,7
12/06/94,22:30:00,57,29,47,35,0,52,50,84,64,0,8,7,7
12/06/94,22:35:00,57,26,48,35,0,57,55,84,64,0,9,7,7
12/06/94,22:40:00,37,33,40,36,0,60,58,84,64,0,9,7,7
12/06/94,22:45:00,52,31,38,36,0,63,60,84,62,0,9,6,7
12/06/94,22:50:00,53,27,36,33,0,64,62,84,62,0,9,7,7
12/06/94,22:55:00,56,28,40,35,0,65,62,83,71,0,9,7,8
12/06/94,23:00:00,54,34,35,33,0,64,61,83,62,0,8,7,8
12/06/94,23:05:00,49,33,40,31,0,60,58,83,62,0,8,7,8
12/06/94,23:10:00,53,33,39,32,0,60,57,83,64,0,9,7,8
12/06/94,23:15:00,57,32,39,32,0,61,59,83,64,0,8,7,8
12/06/94,23:20:00,57,33,32,35,0,62,60,83,64,0,8,7,7
12/06/94,23:25:00,52,35,40,33,0,62,59,83,68,0,8,6,7
12/06/94,23:30:00,56,31,46,34,0,60,57,83,62,0,8,6,7
12/06/94,23:35:00,49,31,39,35,0,64,61,84,62,0,8,7,7
12/06/94,23:40:00,48,35,33,37,0,63,60,84,62,0,8,6,7
12/06/94,23:45:00,51,31,41,38,0,64,61,84,62,0,9,7,7
12/06/94,23:50:00,52,35,40,36,0,64,62,83,62,0,9,7,7
12/06/94,23:55:00,54,28,37,37,0,58,55,85,64,0,9,7,7
12/07/94,00:00:00,53,41,33,30,0,60,58,85,54,0,8,7,8
